Regional Weather Roundup
Issued by NWS

Home | Current Version | Previous Version | Graphics & Text | Print | Product List | Glossary On
Versions: 1 2 3 4 5 6 7 8 9 10 11 12 13 14 15 16 17 18 19 20 21 22 23 24 25 26 27 28 29 30 31 32 33 34 35 36 37 38 39 40 41 42 43 44 45 46 47 48 49 50
000
ASUS45 KCYS 220610
RWRWY

WYOMING REGIONAL WEATHER ROUNDUP
NATIONAL WEATHER SERVICE CHEYENNE WY
1200 AM MDT FRI AUG 22 2014

NOTE:  "FAIR" INDICATES FEW OR NO CLOUDS BELOW 12,000 FEET
WITH NO SIGNIFICANT WEATHER AND/OR OBSTRUCTIONS TO VISIBILITY.

WYZ001-220700-
YELLOWSTONE NATIONAL PARK

CITY           SKY/WX    TMP DP  RH WIND       PRES   REMARKS
LK YELLOWSTONE   N/A     44  43  96 CALM      30.27F
6HR MIN TEMP:  44; 6HR MAX TEMP:  54; 6HR PCP:  0.18;

W YELLOWSTONE  NOT AVBL

$$
WYZ002>013-054>058-071-098>099-220700-
NORTHERN WYOMING

CITY           SKY/WX    TMP DP  RH WIND       PRES   REMARKS
JACKSON        CLOUDY    48  46  93 W3        30.22S
CODY           MOCLDY    52  50  93 CALM      30.16S
GREYBULL       PTCLDY    59  49  69 NW17      30.08R
6HR MIN TEMP:  59; 6HR MAX TEMP:  75;

WORLAND        MOCLDY    60  48  64 NW3       30.10R
6HR MIN TEMP:  59; 6HR MAX TEMP:  70;

SHERIDAN       CLOUDY    59  54  83 NW9       30.12S
6HR MIN TEMP:  58; 6HR MAX TEMP:  63; 6HR PCP: TRACE;

BUFFALO        CLOUDY    55  52  89 N12       30.15F
6HR MIN TEMP:  55; 6HR MAX TEMP:  61; 6HR PCP:  0.10;

GILLETTE       CLOUDY    59  55  87 N13       30.10F
6HR MIN TEMP:  59; 6HR MAX TEMP:  78;

HULETT         CLOUDY    61  59  94 MISG      30.11
NEWCASTLE      FAIR      59  54  82 NW5       30.06

$$
WYZ014>020-022>026-101>103-220700-
CENTRAL WYOMING

CITY           SKY/WX    TMP DP  RH WIND       PRES   REMARKS
BIG PINEY      CLOUDY    49  45  86 N6        30.23S
6HR MIN TEMP:  47; 6HR MAX TEMP:  63;

PINEDALE       CLOUDY    46  45  93 CALM      30.24S
DUBOIS         DRIZZLE   50  43  76 NW18G36   30.23R
LANDER         CLEAR     60  40  47 W3        30.11F
6HR MIN TEMP:  59; 6HR MAX TEMP:  75;

RIVERTON       CLEAR     61  47  59 N12       30.12F
6HR MIN TEMP:  61; 6HR MAX TEMP:  73;

CASPER         PTCLDY    59  45  59 NW8       30.13S
6HR MIN TEMP:  59; 6HR MAX TEMP:  78;

DOUGLAS        MOCLDY    64  44  48 NW7       30.11S
6HR MIN TEMP:  63; 6HR MAX TEMP:  80;


$$
WYZ021-027>030-104>119-220700-
SOUTHERN WYOMING

CITY           SKY/WX    TMP DP  RH WIND       PRES   REMARKS
EVANSTON       PTCLDY    55  43  63 CALM      30.20S
6HR MIN TEMP:  54; 6HR MAX TEMP:  70;

KEMMERER       PTCLDY    50  45  81 N3        30.23S
FORT BRIDGER   FAIR      55  44  66 S10       30.23F
ROCK SPRINGS   PTCLDY    55  42  61 CALM      30.21F
6HR MIN TEMP:  52; 6HR MAX TEMP:  61;

DIXON          FAIR      54  46  76 E7        30.26F
RAWLINS        CLEAR     49  44  83 SE5       30.23F
6HR MIN TEMP:  49; 6HR MAX TEMP:  57; 6HR PCP:  0.05;

SARATOGA       FAIR      52  46  82 MISG      30.27F
LARAMIE        MOCLDY    54  45  71 SE7       30.27S
6HR MIN TEMP:  53; 6HR MAX TEMP:  71;

CHEYENNE       MOCLDY    62  45  53 W7        30.20S
6HR MIN TEMP:  61; 6HR MAX TEMP:  73;

TORRINGTON     PTCLDY    66  51  58 CALM      30.06R
6HR MIN TEMP:  66; 6HR MAX TEMP:  88; 6HR PCP:  0.03;

PINE BLUFFS    MOCLDY    63  48  59 CALM      30.15S

$$


USA.gov is the U.S. government's official web portal to all federal, state and local government web resources and services.